Location: Mat�lon
(46.2791°N, 7.1028°E)
Time: 10:51:17
(UTC+00:00)

Exosat Rocket - Pass Details

Date: 18 September 2020
Orbit: 761 x 2514 km, 72.3° (Epoch: 24 October)

Event Time Altitude Azimuth Distance (km) Brightness Sun altitude
Rises 18:57:55 0° 175° (S) 3,764 6.8 -14.6°
Reaches altitude 10° 19:00:58 10° 165° (SSE) 2,624 5.9 -15.1°
Maximum altitude 19:05:54 30° 105° (ESE) 1,409 4.3 -15.9°
Drops below altitude 10° 19:10:16 10° 44° (NE) 2,308 5.7 -16.7°
Sets 19:12:46 0° 34° (NE) 3,236 6.6 -17.1°
